User: anonymous   Login
Location: Saint-Palais-sur-Mer
(45.6429°N, 1.0859°W)
Time: 09:49:55
(UTC+01:00)
Language:

Altair - Orbit

View from above orbital plane
View from above orbital plane
View from above satellite
View from above satellite

Ground track
Ground track

The orbit is defined by the following mean orbital elements,

1 00050U          26045.76120977 +.00000000 +00000-0 +27269-3 0 00003
2 00050  47.2291 181.7306 0113078  10.1301 350.1733 12.20162703    00
Epoch (UTC): 14 February 2026 18:16:08
Eccentricity: 0.0113078
inclination: 47.2291°
perigee height: 1502 km
apogee height: 1682 km
right ascension of ascending node: 181.7306°
argument of perigee: 10.1301°
revolutions per day: 12.20162703
mean anomaly at epoch: 350.1733°

The dashed part of the orbit path shows where the satellite is in the earth's shadow,  

DLR